RH
105 105 106 104 102 104 103 108 108 102 107 110 98 93 96 88 79 74 70 75 80 76 69 61 53 51 50 44 42 41 41 45 48 46 42 38 36 32 29 30 27 37 60 65 64 79 89 90 95 100 103 102 101 101 98 97 101 100 99 98 91 83 70 51 42 43 41 39 38 35 33 32 31 30 29 29 31 30 29 30 32 36 41 47 51 50 47
104 104 105 105 105 102 99 102 102 101 106 103 95 98 103 101 95 85 80 83 82 75 70 66 61 57 53 49 45 42 42 43 44 44 39 37 39 35 32 31 24 39 83 101 96 99 91 77 88 104 103 100 99 97 96 96 97 99 98 88 75 66 56 45 42 43 42 42 40 37 35 33 32 32 34 35 36 36 37 41 47 52 56 58 57 52 46
102 104 105 104 103 98 95 98 93 91 98 96 87 89 97 107 106 91 82 82 81 82 81 77 76 72 65 59 52 44 42 43 46 46 39 35 37 34 32 34 27 31 64 94 105 105 96 89 97 102 100 99 98 97 99 99 100 102 91 70 58 51 46 42 42 43 45 44 41 40 38 36 35 36 39 41 43 46 51 57 63 66 66 64 60 54 48
102 104 100 93 89 84 86 93 88 84 96 97 86 84 95 108 107 96 89 85 87 97 97 86 84 82 73 64 59 54 48 44 46 46 40 43 50 47 40 35 32 29 36 62 91 100 100 101 100 99 101 100 100 100 99 100 103 95 73 55 52 49 42 40 42 44 45 44 43 43 41 39 39 40 43 46 50 56 64 70 74 74 73 72 67 60 54
104 105 97 87 86 84 85 90 85 85 98 98 86 88 99 106 106 104 99 87 82 95 102 94 89 83 72 62 59 59 56 51 47 41 41 53 62 67 72 68 61 53 41 44 61 73 87 99 98 99 103 100 101 102 101 105 96 70 54 52 48 42 37 37 42 44 44 45 46 45 44 43 44 46 50 55 61 68 74 77 78 80 82 80 74 67 62
104 105 101 95 95 96 96 96 92 93 104 103 93 96 104 106 107 103 85 69 74 96 105 97 90 80 69 62 58 58 58 57 53 42 40 48 49 58 86 101 98 92 80 68 62 66 87 104 100 98 102 100 102 101 101 107 87 53 48 52 43 37 37 37 41 43 43 46 48 47 47 47 49 56 65 73 79 83 85 85 87 89 88 82 76 71 66
103 103 105 103 102 103 101 100 101 103 108 107 98 93 94 96 100 97 80 68 81 105 105 91 87 84 76 68 62 59 57 56 57 52 43 44 47 56 76 92 97 101 100 95 89 86 95 102 98 98 102 101 103 100 96 93 73 50 50 49 40 39 37 36 42 46 46 49 49 49 50 52 60 72 81 86 89 90 90 92 94 94 89 83 78 72 66
103 103 104 100 100 106 104 99 104 107 106 107 103 94 92 93 95 100 98 86 90 107 103 88 88 93 86 75 66 62 59 55 57 58 48 47 58 64 65 67 75 87 94 95 99 100 100 102 102 102 103 103 105 100 87 70 54 47 50 47 42 41 38 38 45 48 50 51 49 49 54 63 76 86 89 89 90 90 93 97 99 97 91 84 77 72 74
102 102 102 94 94 106 108 100 102 105 102 105 104 98 101 104 102 107 109 94 88 100 98 85 90 96 89 78 69 64 62 57 56 57 49 45 52 57 58 58 63 81 97 98 100 104 102 103 104 97 94 99 103 96 79 64 55 52 49 46 43 42 40 41 45 50 54 55 57 62 70 79 87 90 89 90 90 91 93 95 95 93 89 86 84 85 90
101 102 101 94 92 102 106 101 102 104 103 104 103 99 103 107 107 110 105 85 75 84 86 81 88 92 85 76 70 65 61 56 57 60 55 49 45 43 51 59 65 85 104 103 100 104 102 101 102 98 94 93 93 93 92 87 80 69 56 48 46 45 45 45 47 52 58 66 78 87 90 92 93 90 88 87 87 87 89 91 93 94 94 94 95 96 99
97 98 97 96 96 102 106 104 104 106 106 105 105 102 98 99 104 108 98 76 64 71 80 82 85 87 82 75 69 63 58 55 58 62 61 59 53 45 46 55 70 93 110 107 101 102 101 99 99 99 95 83 77 90 104 104 94 81 68 60 53 49 49 51 51 54 61 76 92 99 99 100 99 97 95 93 93 93 95 97 99 99 99 100 100 101 100
91 88 88 93 100 106 108 105 102 104 105 103 103 99 92 93 103 109 101 86 77 82 90 91 93 93 85 75 69 65 61 59 61 65 66 64 63 59 52 51 63 83 97 100 100 97 93 92 89 82 74 66 67 82 93 95 91 84 77 71 62 54 53 55 56 57 61 72 84 92 98 102 101 100 100 99 100 100 100 100 100 100 101 101 99 93 84
91 85 88 98 104 106 106 104 102 103 103 103 104 102 97 101 108 110 106 98 92 95 98 97 100 100 91 81 76 70 65 63 62 64 67 65 63 64 61 53 52 58 63 72 82 83 75 71 67 60 54 54 61 71 78 86 90 85 79 76 71 64 62 61 61 61 61 66 72 80 89 94 97 99 100 100 101 101 100 101 101 101 98 90 81 74 69
91 87 95 106 108 105 103 104 104 103 103 103 103 101 101 106 109 109 108 101 91 89 92 94 99 104 100 93 86 75 68 65 65 68 77 84 84 80 76 68 58 52 51 54 60 64 61 59 59 59 61 64 70 77 82 86 83 77 78 82 79 75 73 70 68 66 64 64 66 68 72 76 79 83 87 94 101 103 101 99 94 87 78 71 68 69 70
94 92 98 105 107 104 102 104 105 104 103 102 101 102 104 106 108 110 109 101 92 93 97 97 100 107 108 100 89 80 71 64 63 68 77 90 99 97 92 85 74 65 61 61 65 71 75 79 82 86 88 89 90 92 90 84 78 80 86 87 82 81 82 80 77 73 70 68 66 65 65 65 66 72 80 90 96 94 88 81 75 70 67 68 71 72 69
100 100 103 105 105 103 101 102 103 102 101 101 102 103 104 105 106 108 107 101 98 100 102 101 104 109 109 98 88 84 78 69 71 74 70 73 84 89 89 89 85 81 78 75 81 91 98 99 100 100 99 98 96 90 80 74 80 94 99 92 85 85 85 84 82 80 77 74 72 72 72 73 75 79 80 80 79 75 72 71 71 71 72 73 72 69 64
100 101 104 105 104 103 103 105 105 103 102 103 103 103 104 106 106 106 105 103 102 101 97 96 100 102 100 97 95 90 79 71 74 76 70 69 76 83 89 92 90 89 88 83 82 88 90 90 89 87 84 84 83 76 65 62 71 82 85 82 82 85 85 84 86 88 85 82 81 81 80 79 78 78 76 75 75 76 77 78 77 75 73 71 68 65 62
100 101 102 102 102 103 104 103 103 103 103 103 104 106 108 107 104 104 105 105 105 104 100 99 100 96 91 93 97 96 91 86 83 78 74 78 86 91 96 97 92 86 83 79 75 73 72 72 71 68 65 65 68 70 67 67 72 77 77 78 82 86 89 91 94 96 95 93 91 89 87 85 84 83 83 84 86 85 84 81 76 72 69 67 65 63 63
102 102 102 102 103 104 104 103 102 104 104 104 105 107 108 106 103 103 105 106 106 105 103 103 103 99 95 91 86 90 101 104 99 94 91 93 99 102 100 97 95 90 85 81 79 77 77 77 74 73 75 78 84 88 85 80 81 82 79 80 84 88 92 96 99 104 106 106 105 103 100 97 95 93 92 91 89 86 82 77 73 69 67 66 65 66 66
102 101 101 104 106 105 103 104 104 103 102 103 105 105 105 104 104 103 103 105 107 104 102 104 103 102 105 100 87 89 103 106 100 100 102 101 102 103 102 100 98 95 92 92 93 91 90 88 88 92 97 101 103 105 99 93 94 93 84 79 80 82 85 88 91 96 100 102 101 98 93 89 87 87 88 88 86 83 78 74 71 69 69 69 70 70 71
101 101 101 102 104 103 100 100 102 103 103 103 104 104 104 104 106 106 103 103 104 102 102 104 100 98 104 102 92 93 104 107 103 100 102 105 105 102 102 104 103 100 99 101 103 104 102 101 103 106 106 104 104 105 102 100 103 103 95 88 83 80 79 79 81 84 86 85 82 78 76 76 79 81 82 81 79 78 76 73 71 71 73 75 74 74 74
100 101 101 100 102 102 98 95 95 97 99 102 103 104 104 103 102 103 103 102 103 102 103 103 99 97 99 97 92 91 93 97 102 103 103 106 107 102 102 105 103 101 102 103 102 103 103 105 106 105 104 104 103 103 101 101 103 104 103 102 99 94 90 88 86 84 82 78 74 72 74 77 79 79 80 80 80 80 79 76 75 78 81 81 78 76 76
99 99 100 100 100 101 100 97 95 95 99 103 104 105 105 104 102 102 102 101 101 101 100 99 95 92 90 88 89 89 81 78 88 99 102 103 102 100 102 106 103 100 101 102 102 100 98 97 97 98 101 103 100 96 93 96 98 99 100 103 104 102 102 102 98 93 87 81 79 83 88 91 92 91 90 89 87 85 84 85 89 91 89 83 78 77 79
94 93 93 94 95 96 98 98 98 98 100 102 104 106 105 102 100 99 96 93 90 89 89 89 89 90 90 91 96 100 93 83 82 88 94 98 101 101 102 104 103 100 98 99 101 101 98 95 96 100 103 101 96 93 93 96 97 94 95 99 99 97 99 101 99 97 93 90 92 97 100 102 102 100 97 93 90 89 91 95 99 96 87 79 79 82 86
93 92 93 94 93 93 94 94 94 97 101 103 104 105 102 96 92 91 89 87 85 84 84 86 90 94 97 98 100 101 99 94 91 91 91 91 94 97 100 102 102 100 98 98 100 102 101 98 97 102 105 103 99 99 101 102 100 95 96 100 97 92 94 98 99 100 98 95 96 100 102 103 103 101 98 96 96 97 100 103 101 92 83 82 89 94 97
95 96 98 98 98 97 97 94 90 91 97 101 102 100 97 92 89 88 88 89 91 93 95 96 95 95 96 98 98 95 91 88 87 86 86 87 88 90 93 96 100 101 100 100 100 100 102 100 98 100 105 105 104 103 104 105 103 99 101 103 97 90 92 96 100 102 100 96 97 100 103 104 102 100 98 97 97 101 105 104 96 88 87 94 100 102 102
97 98 99 100 101 101 100 96 91 88 90 92 93 93 93 92 89 88 88 89 89 91 94 96 94 89 88 91 94 93 89 85 82 80 81 86 91 93 94 96 99 101 101 101 101 101 102 102 103 106 106 105 104 103 103 103 101 98 98 99 97 96 97 97 99 100 99 97 97 99 101 104 104 101 95 92 95 101 104 99 92 91 98 104 104 102 103
99 97 96 97 98 98 98 98 96 94 91 86 82 81 81 83 83 83 85 88 88 85 85 88 89 85 81 83 87 89 87 85 83 81 80 81 84 90 94 95 95 93 91 91 93 95 97 98 101 102 99 96 95 96 96 97 97 96 95 95 97 101 104 104 104 103 101 100 99 99 98 100 102 99 93 92 98 105 103 97 97 101 105 105 103 102 103
97 97 96 94 92 91 94 98 101 103 101 96 90 84 79 77 76 78 81 86 86 82 80 82 83 81 76 75 78 82 83 82 80 79 78 77 77 78 81 81 80 78 77 76 77 80 82 84 86 87 84 82 83 85 89 95 99 102 104 104 102 102 105 105 105 105 104 103 102 103 104 102 99 96 96 100 104 105 103 104 107 107 105 103 103 104 102
87 89 92 92 90 88 89 91 93 95 96 97 96 94 89 82 80 81 83 83 80 76 75 75 76 76 76 76 77 79 81 82 82 79 77 77 77 76 74 73 72 71 70 70 70 71 70 71 74 77 78 80 82 86 92 100 103 105 107 107 105 103 104 105 106 107 107 104 102 104 106 104 101 100 102 104 104 103 105 109 108 105 103 104 105 104 104
80 80 81 83 83 83 84 85 85 84 83 82 84 86 84 81 79 80 82 82 80 77 76 75 76 78 79 81 82 82 82 83 84 83 82 81 80 79 78 77 76 74 72 70 69 69 69 69 72 77 81 85 91 96 101 106 108 108 107 105 103 103 105 107 107 108 107 103 101 101 102 102 103 103 103 103 104 104 105 106 104 103 103 104 104 106 106
82 82 81 81 81 82 82 83 83 82 79 77 76 76 76 75 75 76 77 78 78 75 74 75 78 79 80 80 80 80 80 81 82 83 84 84 83 82 81 80 77 74 71 69 68 69 69 67 67 69 73 78 86 95 100 103 105 105 101 97 97 101 105 106 105 103 102 101 101 101 102 102 103 103 102 103 104 103 103 103 103 102 102 104 106 107 103
83 83 82 83 85 87 88 87 85 83 81 80 79 77 76 76 76 77 79 81 81 77 74 75 78 79 80 81 78 73 71 74 79 82 84 84 82 80 75 69 64 62 60 59 59 59 57 55 55 56 59 64 74 84 91 95 100 100 92 87 93 101 104 104 105 104 103 102 102 102 102 103 103 102 102 102 102 103 103 102 100 101 104 106 106 100 92
85 83 81 81 82 84 85 84 81 78 79 79 77 75 74 74 73 73 74 76 76 73 70 71 72 72 72 72 68 62 59 64 71 76 76 73 69 66 60 53 50 50 50 49 49 49 49 49 51 53 55 60 67 75 83 94 102 99 88 86 96 104 104 102 103 104 103 102 101 101 102 103 102 101 102 102 102 102 102 100 101 105 108 106 99 90 84
84 81 79 77 76 76 76 75 72 71 71 71 69 68 67 66 65 64 64 66 66 65 63 63 62 62 61 60 57 54 54 57 58 59 57 56 55 53 51 49 49 49 49 49 50 50 50 52 55 57 58 62 69 80 93 104 107 99 89 91 101 106 103 100 101 101 101 100 101 101 102 102 101 102 102 103 102 102 101 102 106 109 105 96 88 84 81
85 84 82 82 81 80 80 79 78 76 74 72 69 67 66 64 62 61 60 60 59 57 55 52 51 51 51 49 48 48 49 50 49 49 50 51 52 53 54 56 57 56 55 54 55 56 57 61 64 65 66 68 75 89 102 108 106 100 98 101 104 104 103 102 101 101 101 101 100 101 102 101 101 102 102 102 102 103 104 106 107 102 93 85 82 80 76
91 91 91 92 92 91 91 90 89 87 83 79 75 72 68 65 62 59 56 55 54 51 48 45 44 45 48 50 51 52 53 54 55 56 58 59 61 63 65 67 68 67 64 63 64 66 68 71 74 77 79 81 88 96 103 104 103 103 104 104 103 102 102 103 102 101 101 100 100 101 102 102 102 102 102 104 106 107 104 100 94 87 83 81 79 75 71
97 97 97 98 98 97 97 97 97 96 94 91 87 83 78 74 69 66 63 62 61 59 57 54 52 52 54 58 61 63 66 68 70 72 73 74 75 76 77 80 83 83 81 78 78 79 82 84 87 91 96 99 100 102 102 102 103 103 102 102 103 102 101 101 101 101 101 102 102 102 102 102 103 104 104 106 106 102 94 88 85 83 83 80 75 73 76
102 102 102 103 102 100 99 98 98 98 97 97 95 93 90 86 83 81 78 77 76 74 73 71 68 67 68 70 72 74 78 82 84 86 87 88 89 89 89 91 95 98 97 94 93 94 96 98 99 101 104 105 104 103 102 101 102 101 101 101 100 100 99 100 100 101 103 104 103 103 103 102 102 101 100 99 97 94 91 89 88 87 83 79 76 81 90
108 108 107 104 102 100 97 96 96 95 93 92 93 92 91 90 90 89 89 88 87 87 86 84 81 80 80 82 84 86 88 90 93 95 97 98 98 98 99 100 103 105 105 104 103 103 102 102 102 102 102 102 102 102 103 102 100 100 100 99 97 98 101 103 102 101 102 100 97 97 98 96 94 94 94 92 92 94 94 93 91 88 84 82 85 93 99
107 111 111 107 102 98 95 91 90 89 87 86 86 86 86 86 86 87 88 89 89 90 91 91 89 88 87 87 89 91 93 95 97 99 101 104 105 106 106 107 108 108 106 105 105 105 102 101 101 101 101 101 101 102 102 101 100 101 102 101 100 101 102 102 101 102 102 97 90 89 90 90 91 93 94 92 91 93 95 95 94 90 87 89 94 99 101
95 100 104 105 104 103 102 100 99 97 96 94 92 91 91 90 89 88 88 88 88 88 90 90 91 91 90 89 89 90 91 93 95 97 99 102 104 106 107 109 112 113 109 104 102 101 101 100 101 101 100 100 101 101 100 100 101 102 102 102 101 101 101 101 101 103 102 95 88 86 88 91 94 94 93 92 94 97 100 100 99 96 94 96 99 101 100
95 93 95 97 99 101 103 104 105 106 104 101 100 98 96 95 94 92 90 88 87 85 85 84 84 84 84 83 83 84 84 87 90 93 95 97 99 101 102 105 108 111 111 107 102 101 100 101 101 102 101 101 101 101 101 101 101 101 102 102 101 100 101 102 102 101 100 97 96 95 95 94 94 93 93 95 98 100 101 101 100 100 100 99 99 100 100
104 101 99 97 96 96 97 97 98 99 98 97 96 95 94 93 92 91 88 86 84 82 80 78 77 75 75 74 73 72 72 73 76 80 84 87 91 95 99 102 104 108 111 110 106 103 102 102 102 101 100 100 101 102 102 102 102 102 102 101 101 101 101 101 102 101 100 99 100 101 100 98 96 96 98 100 101 101 101 100 100 100 100 99 100 101 101
107 106 105 102 99 97 96 94 93 93 91 90 89 88 86 85 85 84 82 81 80 78 77 76 73 72 70 69 67 66 65 64 64 66 68 70 74 79 85 91 97 103 109 111 108 103 102 102 103 103 101 101 102 103 102 102 102 102 100 99 99 100 101 101 101 101 101 100 100 101 100 100 100 100 101 102 102 101 100 100 100 101 101 100 101 100 99
105 105 105 103 99 96 93 91 89 86 82 79 77 75 73 72 70 69 68 69 68 68 69 69 69 68 67 67 66 65 64 63 63 63 63 62 63 64 67 72 77 85 94 102 106 105 104 102 102 102 102 101 100 99 100 102 102 101 100 100 99 100 101 101 101 101 101 101 101 100 100 100 100 101 101 102 102 101 101 100 100 101 100 100 101 102 102
98 98 96 92 88 85 84 82 79 76 72 68 65 63 60 57 55 53 52 52 51 52 52 53 55 56 58 58 59 60 61 61 62 64 65 65 65 65 65 67 69 71 75 82 89 96 101 104 105 105 105 103 100 98 98 100 101 100 101 103 104 103 102 102 102 102 102 101 100 100 101 101 101 101 101 101 101 101 101 100 100 100 101 102 103 105 105
93 91 86 80 77 76 75 73 70 67 63 60 57 54 51 49 48 47 46 44 43 43 44 44 44 44 45 46 47 48 49 50 52 53 56 59 61 63 64 67 69 71 72 73 76 81 88 95 100 102 103 105 106 106 106 105 104 103 104 106 108 109 109 108 105 103 103 103 102 102 101 101 101 101 101 101 101 101 102 102 102 103 105 105 105 104 103
90 86 81 77 74 72 69 66 62 59 56 53 52 51 50 50 50 50 49 47 46 44 44 43 42 41 41 41 41 41 40 41 41 42 43 45 47 49 51 54 58 62 67 70 73 76 81 88 93 96 96 96 98 102 106 109 110 110 109 108 107 107 108 107 104 102 102 103 104 105 105 103 103 103 105 105 105 105 105 106 106 106 106 105 103 101 101
88 86 83 78 74 68 63 59 57 56 54 54 55 56 56 55 54 53 51 49 46 44 43 41 40 38 37 36 36 36 36 35 35 35 36 37 38 39 40 42 45 48 52 57 61 66 72 77 83 88 88 86 83 85 91 98 104 108 112 113 112 108 104 102 101 100 101 102 104 106 107 107 106 107 107 106 104 104 104 104 103 101 102 102 101 100 101
88 86 82 76 69 64 60 59 59 60 60 60 60 60 58 55 52 50 48 45 43 41 39 38 36 35 34 33 32 32 32 31 31 31 31 31 31 32 33 34 36 38 41 44 48 52 56 60 65 69 71 71 69 70 76 83 89 94 98 103 105 104 103 104 106 106 106 106 106 106 105 104 104 104 103 102 101 102 102 102 101 101 101 102 101 101 100
88 84 78 72 67 64 64 65 66 65 64 62 61 59 55 52 49 47 45 44 42 40 39 38 37 35 34 32 31 30 30 29 30 29 29 29 29 29 29 29 30 31 32 34 36 39 43 47 50 53 55 56 56 59 65 72 79 84 87 89 90 89 91 96 101 104 105 107 107 106 105 103 101 101 101 101 100 101 101 100 99 99 100 100 100 101 102
Wind_Speed
57 57 57 56 54 52 50 49 47 47 50 52 50 47 45 43 41 39 39 40 42 44 45 44 44 45 48 50 52 53 53 52 53 53 52 51 52 53 53 51 49 44 40 41 43 44 46 48 50 50 49 44 42 42 42 44 46 48 50 52 54 55 56 55 55 55 55 55 55 55 55 55 56 56 56 56 56 56 57 58 57 56 55 53 52 52 53
59 59 59 57 55 53 51 49 49 49 52 52 50 47 44 42 41 40 39 39 41 42 41 40 41 43 46 48 50 52 52 52 52 52 52 51 49 49 48 47 47 42 36 37 42 43 45 49 51 52 50 46 44 44 45 46 48 50 52 55 56 57 57 56 56 56 55 55 55 55 55 55 55 54 54 54 55 56 56 56 55 53 52 51 51 52 54
61 61 60 58 56 54 52 51 50 50 51 51 49 47 43 41 41 41 39 39 39 39 39 38 40 42 45 46 47 48 50 51 51 50 50 49 47 46 44 43 44 43 42 44 46 44 44 47 50 50 49 49 48 48 49 50 52 53 55 55 55 54 55 55 55 55 55 54 54 54 54 54 54 53 54 54 55 55 54 54 52 51 51 51 52 54 55
61 61 59 57 55 53 52 51 50 48 50 50 49 46 43 42 41 41 39 39 39 39 40 41 42 45 46 46 46 46 47 49 50 49 48 47 45 43 42 43 43 44 47 50 51 49 47 48 50 50 51 52 52 51 52 53 53 52 52 53 53 52 53 53 53 53 54 53 53 53 54 54 54 54 54 54 54 54 53 52 51 50 50 51 52 54 56
57 57 56 53 51 50 49 48 47 46 48 49 47 45 43 41 40 41 42 41 39 39 41 42 44 46 46 45 45 45 45 46 48 49 49 48 46 43 42 43 44 44 48 51 53 53 54 53 51 50 52 53 53 53 53 53 52 50 50 51 51 51 52 52 52 53 53 52 52 53 53 53 54 54 54 54 53 52 51 50 50 50 50 52 54 55 57
54 54 53 51 50 49 47 45 44 45 47 48 47 45 43 41 41 43 43 40 37 38 41 43 44 44 43 43 44 44 44 44 45 47 49 51 50 47 45 45 45 44 47 50 53 55 57 57 54 53 54 55 55 55 55 54 52 51 51 50 50 50 51 51 52 53 52 51 51 52 52 52 53 54 53 53 52 51 50 49 50 51 52 54 56 57 59
54 53 51 50 49 48 47 46 46 47 48 49 48 45 43 42 42 43 42 39 37 39 42 42 41 41 41 42 42 43 43 43 44 45 47 50 51 50 50 50 47 44 45 48 51 55 58 59 58 58 58 58 58 57 56 55 54 53 52 51 50 49 49 50 51 51 51 51 51 51 52 52 52 52 52 51 50 49 49 50 51 53 55 56 58 60 61
55 53 52 51 49 48 48 48 48 49 50 50 48 45 42 41 39 40 42 41 39 41 43 41 40 40 41 41 41 42 42 42 42 44 46 49 50 50 52 53 50 46 45 46 48 52 56 59 61 62 62 62 60 58 57 57 57 56 53 52 51 49 49 49 50 50 50 51 51 51 51 52 51 51 50 50 50 50 51 53 54 56 58 59 61 62 63
54 53 52 50 48 48 50 50 50 50 50 49 48 44 42 41 40 42 45 44 41 42 43 40 40 41 41 41 40 41 41 40 41 44 46 49 52 52 52 54 53 52 52 50 51 53 56 59 62 64 64 60 56 56 57 58 58 57 54 53 51 50 49 48 49 49 50 50 51 51 51 51 51 51 51 52 53 54 55 57 58 59 60 61 63 64 65
54 53 50 48 47 48 49 50 50 50 49 48 47 45 44 43 43 45 48 46 41 41 41 40 40 41 41 41 41 41 40 39 40 43 45 47 51 54 55 56 56 57 57 56 56 57 58 58 59 61 60 56 52 53 54 53 53 52 52 53 52 50 49 48 48 49 50 50 51 51 51 51 52 53 54 55 56 57 58 60 60 61 62 63 64 66 67
53 51 48 46 46 47 49 49 49 49 49 48 46 46 44 43 43 45 47 45 38 37 39 39 40 41 42 41 41 40 40 39 39 42 44 46 49 53 56 59 60 60 61 60 59 60 61 60 58 58 58 56 54 54 52 49 49 48 49 52 53 52 50 49 49 50 50 51 52 52 52 52 53 54 55 56 58 58 59 60 61 63 64 65 67 69 70
50 48 46 45 47 48 49 49 48 47 48 47 46 45 43 40 42 44 46 43 37 34 37 39 39 41 41 40 40 39 39 38 39 42 44 47 49 50 53 57 61 63 63 63 63 64 64 63 61 59 59 58 57 57 55 53 52 51 50 52 54 53 52 51 51 51 51 52 53 54 54 55 55 56 57 57 58 59 60 62 63 65 67 68 70 71 72
48 45 44 44 46 48 48 47 47 47 47 46 45 44 42 41 42 44 44 43 39 36 37 37 38 40 41 40 40 39 38 38 39 42 44 46 48 49 51 54 59 63 65 64 64 64 64 63 62 61 62 61 61 60 60 58 56 53 53 53 54 53 52 52 53 53 53 54 55 56 57 58 59 60 61 61 62 62 64 65 66 68 70 71 72 72 72
45 44 44 44 45 46 46 46 47 47 46 44 43 44 43 42 43 44 45 44 41 37 37 36 38 40 41 41 40 39 38 38 39 41 44 45 45 47 48 51 55 59 61 62 62 62 62 62 62 61 62 62 62 61 60 59 57 55 54 54 54 53 52 53 54 55 55 56 57 58 60 61 62 63 64 65 65 66 67 69 70 71 72 71 71 72 72
43 42 42 42 43 43 44 45 45 45 44 43 43 44 44 43 43 44 46 44 41 38 38 37 38 41 43 42 40 39 39 39 39 40 43 45 46 46 46 47 50 53 56 57 58 59 59 58 58 59 60 60 61 61 60 59 56 55 55 55 54 53 54 55 56 56 56 57 59 60 61 62 63 64 65 66 67 68 69 70 71 71 71 71 71 71 71
43 42 41 40 41 42 43 43 43 43 43 44 44 45 45 44 43 44 45 43 41 41 40 39 40 42 43 41 38 38 39 40 39 40 42 45 47 47 47 47 49 51 53 55 56 57 57 57 57 57 58 57 58 60 60 57 51 50 53 55 55 55 56 57 57 57 58 59 60 61 62 62 63 64 65 66 67 68 69 70 70 71 71 70 69 70 70
41 40 39 39 40 42 43 44 44 44 43 44 44 44 44 44 44 45 45 44 43 43 42 42 42 42 41 38 36 38 40 40 40 41 41 42 44 46 48 48 48 49 52 53 55 56 57 58 58 57 56 55 55 58 59 56 52 52 56 59 59 58 58 58 58 59 59 60 61 62 63 63 64 65 65 66 67 68 68 69 70 70 69 68 68 68 69
39 38 38 37 38 42 44 45 45 45 45 45 45 45 44 44 45 45 46 46 45 45 44 43 42 41 40 38 37 39 42 42 41 41 40 40 41 44 45 45 46 48 51 52 53 55 56 58 58 57 56 55 55 56 56 55 55 57 60 61 59 59 59 59 59 59 60 61 62 63 63 64 64 65 65 65 66 67 67 68 68 67 67 67 67 67 67
40 40 39 39 39 42 46 47 46 46 47 46 46 46 45 45 46 46 47 47 47 47 46 44 42 40 40 39 39 41 44 44 43 41 39 39 40 41 42 42 43 45 47 48 50 52 54 55 55 53 51 48 49 50 52 53 55 57 59 59 59 59 59 59 59 60 60 61 62 63 63 63 64 64 64 64 64 65 65 66 66 67 67 66 66 66 66
41 41 42 44 45 46 48 48 47 47 47 47 47 47 47 46 47 47 48 48 48 48 47 45 43 42 42 40 40 43 45 44 43 41 39 39 40 41 42 43 43 44 45 45 46 47 49 50 49 47 45 44 46 49 49 49 53 56 57 57 58 58 59 59 59 60 61 61 62 62 62 62 62 62 62 63 64 64 65 66 66 66 65 65 64 64 65
42 43 44 46 49 50 49 48 48 48 47 47 48 47 47 46 47 47 48 49 49 49 48 47 46 45 45 43 43 45 46 45 44 44 43 43 44 44 44 45 46 46 46 45 45 45 46 47 47 47 47 47 49 50 49 50 52 55 56 57 57 58 59 59 59 60 61 62 62 61 61 61 61 61 62 63 63 64 64 64 64 63 63 63 64 64 63
45 46 47 48 49 50 49 48 48 48 47 48 48 48 48 48 48 48 48 49 49 49 49 48 47 47 47 46 46 48 48 47 46 46 46 46 47 47 47 48 48 48 48 48 47 47 48 49 49 49 49 49 50 51 51 52 54 55 55 56 57 58 59 59 60 61 61 60 60 59 59 59 59 59 60 61 61 61 61 61 61 61 62 62 63 62 62
47 49 50 50 50 50 50 49 48 47 47 48 49 50 50 50 50 50 50 51 51 50 50 50 49 49 48 49 49 50 51 50 49 48 48 48 48 48 49 49 50 51 51 51 50 50 50 50 49 49 49 51 53 53 52 52 54 55 55 56 57 58 58 59 60 61 60 58 57 56 56 56 56 56 56 56 57 58 58 59 59 60 61 62 61 61 61
49 49 49 49 50 50 50 50 50 49 48 49 50 52 52 53 53 53 52 52 52 52 52 51 51 51 51 51 52 52 52 52 51 51 52 51 51 50 49 50 51 52 52 51 51 52 52 51 49 50 51 52 52 52 51 51 52 53 53 53 54 55 56 58 58 57 57 55 53 51 51 51 52 53 54 55 57 57 58 58 59 60 61 60 60 60 60
47 47 48 48 49 50 50 51 51 50 50 50 52 54 54 54 54 54 53 53 53 53 53 52 52 53 53 53 54 55 55 54 54 53 54 55 55 54 53 53 53 54 53 52 52 52 53 52 51 51 52 51 48 47 48 50 51 50 50 50 51 52 52 53 53 53 53 52 50 50 51 52 53 54 55 56 57 57 58 59 59 60 59 59 59 59 58
46 46 46 47 48 49 50 51 51 50 51 52 53 54 55 55 55 54 53 53 53 53 53 54 54 54 54 54 55 57 58 58 57 56 56 57 57 57 57 56 56 55 53 51 51 53 54 54 52 52 53 53 50 49 51 53 54 54 54 54 54 54 53 53 53 54 55 55 54 54 55 55 56 56 56 56 57 58 59 59 59 58 58 58 58 57 57
45 46 46 46 47 48 50 50 50 50 51 52 54 54 55 55 54 54 53 54 54 54 55 55 56 56 56 56 57 58 60 60 60 59 59 58 59 59 59 58 58 57 55 53 54 56 57 56 55 55 56 56 56 57 58 59 59 58 58 57 57 56 56 55 55 56 57 57 57 58 58 58 58 58 58 58 59 59 58 58 57 57 57 57 57 57 57
46 46 47 48 49 49 50 50 50 50 51 53 54 55 55 55 55 54 54 54 55 56 56 57 58 58 58 58 58 60 61 62 62 62 61 60 61 61 61 60 60 60 58 57 58 60 61 60 60 60 61 61 61 61 61 61 61 60 59 57 56 55 55 55 54 54 54 54 55 56 57 58 58 58 58 58 58 57 57 56 56 56 56 57 57 57 58
46 47 47 49 50 50 50 50 51 51 53 53 54 55 55 56 55 55 55 56 58 59 59 59 60 60 60 60 60 61 62 63 63 63 62 62 62 63 63 63 63 62 61 60 61 63 64 64 63 64 64 64 64 63 61 61 60 59 58 57 56 55 55 55 55 54 53 52 51 51 52 53 54 54 54 55 55 56 56 56 56 56 56 57 57 58 58
47 48 48 50 50 51 51 52 53 54 55 55 55 56 57 57 56 56 57 59 60 61 60 60 60 60 61 60 60 60 61 63 64 63 62 62 62 62 63 63 62 62 62 62 63 65 65 64 64 64 64 64 63 62 61 59 59 58 58 57 56 55 54 55 55 55 54 52 50 49 49 49 49 51 53 54 55 55 55 55 55 56 56 56 57 58 59
46 47 49 50 51 51 52 53 55 56 57 57 58 58 59 59 58 58 59 60 61 61 60 59 59 59 59 60 60 60 60 61 61 62 61 61 61 61 61 61 61 62 62 62 63 64 64 63 62 61 61 61 60 59 59 59 58 58 58 56 54 53 53 54 55 54 53 52 51 50 50 50 51 52 54 54 54 54 55 55 55 55 56 56 57 58 59
45 46 47 48 49 50 51 52 54 56 56 56 57 58 58 58 58 57 58 59 59 59 58 57 55 55 55 56 56 57 57 58 59 59 59 59 59 58 58 58 59 59 60 60 61 61 61 60 59 58 58 57 56 56 56 57 57 57 56 54 51 50 51 52 52 51 51 50 50 50 51 52 52 53 54 54 54 54 55 55 55 55 56 57 58 59 60
43 44 44 45 45 46 48 49 51 52 53 54 54 54 54 54 54 54 54 55 56 56 56 55 53 52 53 53 53 53 54 55 56 56 57 58 57 57 56 55 55 56 56 56 56 57 57 56 55 54 54 53 53 54 54 54 56 57 54 50 48 47 47 48 48 49 49 48 48 50 52 53 53 53 54 53 54 55 55 55 55 56 57 58 59 59 59
43 43 42 43 44 45 47 48 48 48 49 51 51 51 50 51 51 51 51 52 53 54 54 53 52 52 53 53 53 51 51 51 51 53 54 55 55 54 53 52 51 51 51 51 51 51 51 50 50 51 51 50 51 52 52 51 54 54 51 47 46 46 46 46 46 47 48 48 48 50 52 53 52 53 53 53 54 55 55 55 55 57 58 58 59 59 57
41 41 40 41 41 42 42 43 43 44 45 46 46 46 46 46 47 47 47 47 48 49 49 49 48 48 48 49 49 48 47 47 47 48 49 49 50 50 49 47 46 45 45 46 46 46 46 45 46 48 48 48 48 49 49 50 52 53 51 48 47 47 47 47 48 48 48 48 49 50 52 53 53 52 53 53 55 56 56 56 56 57 58 59 59 58 55
36 36 36 36 36 36 37 38 38 39 39 40 40 40 40 40 40 40 40 41 41 42 43 43 42 42 42 43 43 43 42 43 43 43 44 44 45 45 44 43 42 42 42 43 43 43 42 42 43 44 44 45 45 46 46 48 51 52 52 50 49 49 49 49 51 51 50 50 51 52 53 53 54 53 53 54 56 57 57 57 57 58 59 59 59 57 54
32 33 33 33 33 34 34 35 35 36 36 36 36 36 36 36 36 36 36 36 37 38 38 38 38 38 38 39 39 39 39 39 40 40 41 41 42 41 41 40 40 40 40 41 41 41 40 40 41 41 41 42 43 43 44 45 48 51 53 52 51 50 51 52 53 54 53 52 52 53 54 55 55 55 55 55 57 58 59 58 59 59 59 59 58 56 53
31 32 32 33 33 33 33 34 34 34 34 34 35 35 35 34 34 34 34 34 35 35 36 36 37 37 37 37 37 37 38 38 38 39 39 40 40 39 39 38 38 39 39 39 39 39 39 39 39 39 39 40 41 42 44 45 47 50 52 52 52 53 54 55 55 55 55 54 54 55 55 56 56 56 56 56 58 59 60 60 60 60 60 60 58 55 53
31 31 32 33 33 34 34 34 34 34 34 34 34 34 34 34 34 34 34 34 34 34 35 35 36 36 37 37 37 37 37 38 38 39 39 39 39 39 39 38 38 38 39 39 39 38 38 38 38 39 40 42 43 44 46 48 49 50 52 53 54 55 56 56 56 56 56 56 57 56 56 56 57 57 57 57 58 60 61 61 61 61 61 60 58 55 54
33 33 33 34 34 34 34 34 34 35 35 35 35 35 35 35 34 34 34 34 34 35 35 35 36 36 36 37 37 37 38 38 38 39 39 39 40 39 39 39 39 39 39 39 39 39 38 39 39 40 42 44 45 46 49 51 52 53 55 55 55 54 54 55 56 57 58 58 58 57 57 57 57 57 58 58 59 61 62 62 62 61 60 59 57 57 58
35 36 36 36 35 35 35 35 34 34 35 34 35 35 35 35 35 35 36 36 36 36 36 36 37 37 37 37 37 37 38 38 39 39 39 40 40 40 40 40 40 40 40 40 40 40 40 41 42 43 45 46 47 49 50 52 53 54 56 56 55 54 54 56 57 58 60 60 59 58 57 58 58 59 60 60 61 61 62 62 62 62 60 59 58 59 61
35 36 37 37 37 36 36 35 35 35 35 35 35 35 35 36 36 36 37 37 37 38 38 39 39 39 39 39 39 39 39 39 39 39 40 40 41 41 41 41 41 41 41 42 42 42 42 43 45 46 47 48 49 50 51 52 53 55 56 56 56 55 56 57 58 60 61 62 62 60 60 60 60 61 62 62 61 62 62 62 62 62 61 60 60 62 64
34 34 34 35 35 35 35 35 35 36 36 36 36 36 36 37 37 37 38 38 39 39 40 41 41 41 42 42 42 42 42 42 41 41 41 42 42 41 41 41 42 42 42 43 44 44 44 45 47 48 49 50 51 53 54 54 55 56 56 57 56 56 57 58 60 62 63 64 64 64 63 63 64 64 64 63 62 62 62 62 63 63 63 63 64 65 67
33 33 32 32 32 32 32 32 33 34 34 35 36 37 37 37 37 38 39 39 40 40 41 42 42 43 44 44 44 45 45 44 44 44 44 44 44 44 43 43 43 43 43 44 45 45 46 48 50 51 51 52 54 55 56 56 57 58 58 58 57 58 59 61 63 64 65 66 66 67 67 67 67 66 65 64 63 62 62 63 64 65 66 67 68 69 70
31 32 32 32 32 32 31 31 31 32 32 33 34 35 35 36 36 37 38 39 39 40 41 42 42 43 44 45 45 46 46 46 46 46 47 47 47 47 47 47 46 46 46 46 47 47 48 50 51 53 54 55 57 57 58 58 58 59 59 58 58 59 62 64 65 67 68 68 69 69 69 69 68 67 66 65 64 64 64 64 66 67 69 70 71 72 73
32 32 33 33 33 33 32 32 32 32 32 32 33 33 34 34 35 36 37 38 38 39 40 40 41 42 43 44 44 45 45 46 46 47 48 48 48 48 49 49 49 49 50 50 51 51 52 53 54 56 58 59 59 59 59 59 60 60 60 60 60 62 64 66 68 69 70 70 71 70 70 69 68 67 66 66 66 66 67 68 69 70 72 73 74 75 76
32 33 34 34 34 33 32 32 32 32 32 32 32 32 33 33 34 34 35 36 36 37 37 38 39 40 41 42 43 44 44 45 45 46 46 47 48 48 49 49 50 51 52 53 53 54 55 57 58 60 61 61 61 61 61 61 62 62 61 61 62 64 67 69 70 71 71 71 70 70 69 68 67 67 67 67 68 69 70 71 72 73 74 75 76 78 79
32 33 34 33 32 31 31 32 32 32 31 31 31 31 31 31 31 31 32 32 33 33 34 35 36 37 38 39 40 41 42 43 43 44 45 46 47 48 48 49 49 50 51 52 53 54 56 58 60 62 62 63 63 63 64 64 64 64 63 64 65 67 68 70 70 70 70 69 68 67 67 67 67 68 68 69 70 71 72 73 74 76 77 78 79 79 80
32 33 32 31 30 30 30 31 30 30 30 29 28 28 28 28 28 28 28 29 29 29 30 31 32 32 33 34 35 37 38 39 40 41 43 44 46 47 48 48 49 49 50 51 52 52 53 55 58 60 61 62 63 63 63 63 63 63 63 64 65 66 67 68 68 67 66 66 65 65 66 67 68 69 70 71 71 73 74 75 77 78 79 80 81 82 83
32 32 31 30 30 29 29 28 28 27 27 26 26 25 25 25 25 25 25 26 26 26 27 28 29 29 30 30 31 32 33 34 35 36 37 39 40 42 44 45 47 48 49 50 51 52 53 54 56 57 59 60 60 59 58 58 58 59 60 62 63 64 64 64 64 64 64 64 64 64 66 67 69 70 71 72 73 74 75 76 78 79 81 82 83 85 86
30 30 30 29 28 28 27 26 25 25 24 24 24 24 23 23 23 23 23 24 25 25 25 26 27 28 28 28 29 30 30 31 32 32 33 34 35 36 38 39 41 43 45 47 49 51 53 54 55 57 59 59 59 57 56 56 57 58 59 61 63 64 63 63 63 64 65 65 65 66 67 68 70 71 72 73 75 76 77 79 80 81 83 84 86 87 89
28 28 28 27 27 26 25 24 24 24 23 23 23 23 22 22 22 22 22 23 24 24 25 26 27 27 28 28 28 29 29 29 30 30 31 31 32 33 34 35 36 38 40 42 45 47 49 52 54 56 58 58 58 57 56 57 58 59 61 62 63 64 63 63 64 65 66 67 68 69 70 71 72 74 75 77 78 80 81 82 83 85 86 87 89 90 91
Wind_Direction
206 210 214 217 217 216 216 218 220 220 219 221 223 223 224 227 230 231 229 228 229 230 230 230 228 228 230 231 230 227 225 226 229 230 229 229 229 228 227 227 227 228 233 238 239 239 240 243 246 250 252 254 256 257 256 254 254 256 259 264 270 275 277 277 277 277 277 277 278 278 278 278 279 279 280 280 281 281 283 285 287 289 290 292 294 296 298
206 209 213 215 217 217 218 219 220 218 217 219 220 222 223 226 231 232 230 229 231 232 232 233 233 233 233 233 233 232 230 229 230 232 231 230 231 230 229 228 225 222 222 228 233 237 245 248 249 251 253 253 255 257 257 256 259 263 268 271 274 274 274 274 273 273 274 274 275 276 277 277 278 278 279 279 280 281 283 285 287 289 291 293 295 297 299
207 210 213 214 216 217 218 220 220 218 217 218 220 221 222 224 230 232 231 230 231 233 233 233 233 234 234 233 233 233 232 232 231 232 233 233 233 232 230 228 226 220 216 221 227 232 241 248 249 250 252 253 256 257 256 258 263 269 271 273 273 272 271 270 270 271 272 273 274 276 277 277 277 277 278 279 280 282 284 286 287 289 292 294 296 298 300
210 212 215 217 219 221 220 222 221 217 216 219 221 221 221 223 228 232 233 231 230 231 233 233 232 233 233 231 232 232 232 232 232 232 233 234 233 232 229 226 224 220 217 220 223 224 229 238 243 247 250 253 256 257 258 262 268 271 271 271 271 270 270 269 270 270 271 273 274 276 277 278 278 278 279 280 281 282 283 285 287 290 292 294 296 298 299
213 216 218 219 221 224 224 226 224 217 216 220 221 221 222 223 227 231 232 230 228 228 232 234 235 235 234 232 232 233 233 233 233 231 231 231 231 230 226 223 222 221 220 221 223 224 228 233 238 242 246 250 254 257 261 265 268 270 270 270 271 271 270 270 270 270 271 273 274 275 277 278 279 279 279 280 280 282 283 285 287 290 292 293 295 296 298
213 216 219 219 220 222 223 224 222 216 217 222 223 222 221 221 225 231 234 232 228 228 231 234 237 239 238 236 234 233 233 234 234 232 230 231 232 230 226 224 223 223 224 225 225 226 229 232 235 240 244 249 254 259 263 265 267 268 269 269 270 271 270 270 270 271 272 272 273 275 276 277 278 278 278 279 280 281 283 285 287 289 290 292 293 294 296
212 213 215 217 218 220 220 219 216 212 215 221 223 223 223 223 225 232 237 235 230 229 232 233 237 241 242 239 237 235 233 232 233 233 231 232 234 232 228 228 230 230 230 231 230 230 233 236 240 244 248 252 257 262 265 265 266 267 267 267 269 270 270 270 270 271 272 272 273 274 275 275 276 276 277 278 279 280 282 284 286 288 289 290 291 293 294
212 212 214 215 215 217 218 216 212 210 213 219 222 224 225 227 229 233 238 237 232 232 233 233 235 239 242 241 240 237 235 233 232 232 230 229 232 234 233 233 235 236 236 236 235 235 237 241 245 249 253 256 260 263 264 264 265 265 265 265 267 268 269 269 270 271 272 272 273 273 274 274 275 275 276 277 278 279 281 283 285 287 288 289 290 291 292
212 213 215 216 214 214 215 214 210 210 214 217 221 224 225 227 228 230 234 236 233 233 235 234 234 238 241 242 242 240 237 235 234 234 231 228 229 232 235 236 236 236 237 237 238 239 241 245 248 251 253 256 260 262 263 264 264 263 263 264 265 267 268 269 270 271 271 272 273 273 273 273 274 274 275 276 278 280 282 284 285 286 287 288 288 289 291
211 214 215 215 213 212 213 212 210 212 215 217 221 224 225 225 226 229 233 236 234 234 236 236 236 239 241 242 243 242 239 236 235 235 234 230 228 229 231 233 234 235 235 236 238 240 242 246 249 250 251 252 254 257 261 262 262 262 263 263 264 265 267 269 269 270 270 270 270 270 270 271 272 273 274 276 278 280 281 283 284 284 285 286 287 289 291
211 213 213 212 211 210 210 211 211 213 216 218 221 224 226 227 230 233 238 242 240 237 239 239 239 241 243 244 245 245 242 238 236 235 235 234 232 230 229 229 231 233 233 235 238 240 244 248 250 250 251 251 251 253 256 258 259 260 261 262 263 265 266 268 269 269 268 268 267 267 268 269 269 271 273 275 277 278 280 280 281 282 284 285 288 290 293
213 212 210 208 207 207 208 210 213 215 218 220 223 227 229 231 234 237 242 246 244 239 239 241 242 244 246 247 247 247 245 241 237 236 235 234 234 233 231 230 231 232 234 236 239 242 246 250 252 252 254 254 253 254 255 256 258 259 260 262 264 264 266 267 268 268 268 267 266 267 267 267 268 269 271 273 275 277 278 279 281 282 285 287 289 292 294
211 209 206 205 205 206 208 211 214 216 219 221 224 228 231 232 234 238 242 243 240 237 237 240 243 245 247 248 248 248 246 243 239 237 235 234 234 235 236 235 234 234 237 239 241 245 249 252 253 255 256 256 256 256 257 258 260 261 261 262 264 265 266 266 267 267 268 268 268 268 267 267 268 269 271 273 275 276 278 280 282 284 286 289 291 294 295
206 203 201 203 206 208 210 213 216 218 221 223 226 229 231 233 235 237 240 241 239 236 237 239 243 246 248 249 250 249 247 244 241 238 236 234 234 234 236 238 238 237 239 241 243 246 249 251 253 255 256 257 258 258 259 260 262 264 265 265 264 265 265 266 266 267 268 269 269 269 269 269 270 271 272 274 275 276 279 281 283 286 288 290 292 294 296
203 201 201 204 209 212 214 215 218 220 222 224 226 229 231 234 236 237 238 239 239 238 238 239 241 244 246 248 250 251 250 246 243 239 237 236 236 235 236 238 239 239 240 242 243 245 247 250 252 254 255 257 258 259 261 263 265 267 266 264 264 264 264 265 266 267 268 268 269 269 270 270 271 272 273 275 276 278 280 283 285 287 289 291 293 295 296
203 203 204 207 212 216 218 219 220 222 224 226 228 230 232 234 235 236 238 239 239 238 239 239 239 241 245 247 250 252 252 250 246 243 240 239 238 239 239 240 240 240 241 242 244 245 247 249 251 253 255 258 259 260 261 262 262 262 262 261 262 263 264 264 265 266 267 267 268 269 270 271 272 273 275 276 278 280 282 284 286 287 289 291 293 295 296
205 205 207 210 215 218 219 220 220 222 224 227 230 233 235 236 235 235 237 239 240 240 241 241 240 242 246 248 251 253 254 252 249 247 245 243 242 241 241 241 242 242 243 245 246 248 250 251 253 255 257 258 259 261 262 261 258 256 258 260 262 263 263 264 265 265 266 267 268 269 270 271 273 275 276 278 280 282 283 285 286 288 290 292 294 295 297
207 208 209 212 218 223 223 222 221 222 223 226 229 233 235 235 235 236 237 239 241 242 243 243 243 245 246 247 250 253 254 254 252 250 248 246 245 244 243 244 246 246 247 248 249 251 252 253 255 257 259 260 261 262 263 261 259 258 259 261 262 262 262 263 263 264 265 266 267 269 270 272 274 275 277 279 281 282 283 285 287 289 292 294 295 296 297
208 209 209 210 216 223 224 223 223 224 226 228 231 233 234 234 234 235 237 238 240 242 243 244 244 245 246 246 247 250 252 254 253 252 251 250 248 248 248 250 250 250 250 250 252 253 254 255 257 259 260 260 261 261 262 261 260 260 260 261 261 261 262 262 263 264 265 266 267 269 270 272 274 276 278 279 281 282 284 286 289 291 293 294 295 295 296
210 211 211 211 214 220 222 221 222 224 227 230 232 234 235 234 233 234 236 238 240 242 243 243 243 243 244 244 243 245 248 251 251 251 252 253 252 252 253 254 254 254 253 252 253 253 254 255 256 257 255 254 255 258 260 261 261 260 260 261 261 261 262 263 263 264 265 266 267 269 270 272 274 276 278 280 282 284 286 288 290 292 293 294 294 294 295
211 213 215 215 218 222 224 223 223 225 227 230 232 234 235 235 234 234 236 238 240 242 244 244 243 243 243 243 242 243 246 248 249 250 252 253 254 254 254 254 255 255 254 253 254 254 255 256 255 254 253 253 254 256 257 259 261 262 263 263 262 263 263 264 265 265 266 267 268 270 272 274 276 278 279 281 282 284 286 288 290 291 292 293 293 294 295
212 214 217 219 221 225 228 228 228 229 230 231 232 232 233 235 236 237 237 238 240 242 244 245 245 245 245 245 245 245 246 247 249 249 251 252 253 253 253 253 253 253 253 254 256 256 256 256 256 256 257 257 256 256 257 259 261 263 264 264 264 265 265 265 265 266 267 268 270 272 274 275 276 278 279 281 282 284 286 288 290 291 292 292 293 294 296
217 217 219 221 223 226 229 230 231 231 232 232 232 232 233 234 236 237 237 239 240 242 244 246 246 247 247 248 249 249 249 249 249 249 250 251 252 252 252 253 253 253 254 255 257 257 257 258 259 260 261 261 260 260 261 261 261 262 262 263 264 265 265 265 266 266 268 269 271 273 274 275 276 277 279 281 283 285 287 289 290 291 291 292 294 295 297
222 223 223 225 227 228 229 231 231 231 231 231 232 233 233 234 236 237 239 240 242 243 245 247 248 249 250 251 252 252 252 252 251 250 251 251 252 252 253 254 254 254 255 257 258 259 261 261 262 262 262 263 265 266 265 264 263 262 262 263 264 264 264 265 266 267 269 269 270 271 273 275 276 277 279 282 284 286 287 288 289 290 292 293 295 296 297
224 226 227 228 230 231 232 232 232 231 231 231 233 234 235 236 238 239 241 243 245 247 248 249 250 251 251 252 253 254 255 255 254 253 253 253 253 254 255 256 256 257 258 259 260 262 262 262 261 261 262 264 265 266 266 265 264 263 263 264 265 265 266 266 267 267 268 267 267 270 273 276 277 278 281 283 284 286 287 289 290 291 292 294 295 296 297
226 227 228 229 231 233 235 235 234 233 232 233 235 237 238 239 240 242 243 245 248 249 251 252 252 252 253 254 255 256 257 257 257 256 255 255 256 256 257 257 258 258 259 260 261 262 261 261 260 260 261 262 261 261 262 264 265 265 265 265 266 266 267 267 267 268 268 267 268 270 273 275 277 278 281 283 285 286 288 289 290 291 293 294 294 295 295
228 229 229 231 232 234 236 237 237 237 236 237 238 239 241 242 243 245 246 247 249 250 251 253 254 254 254 255 256 257 258 259 259 258 257 257 257 257 257 257 258 257 257 258 260 260 260 260 260 260 261 262 261 261 263 265 266 267 266 266 267 268 268 269 269 270 270 270 270 270 271 273 275 277 280 283 285 286 287 289 290 291 292 292 293 294 295
232 232 232 233 234 235 237 239 241 242 242 241 241 242 243 244 245 247 248 250 251 251 251 252 253 254 254 254 255 257 258 259 259 259 258 258 257 257 257 257 258 258 257 258 259 259 260 261 261 262 262 263 263 264 265 267 268 269 269 268 268 268 268 269 269 271 272 272 273 272 272 273 275 277 280 282 283 285 286 288 289 290 290 291 292 294 295
235 235 236 237 237 238 239 241 242 244 245 246 246 246 246 246 247 248 249 251 251 252 252 252 253 254 255 255 256 257 258 259 260 260 259 259 258 258 258 258 258 258 259 259 259 258 259 260 261 262 262 263 263 264 265 267 268 269 270 269 268 267 267 267 268 270 271 273 274 274 274 275 276 278 280 281 282 284 286 287 288 289 289 291 292 294 296
237 238 239 240 241 241 242 243 244 245 246 247 248 250 250 250 250 251 251 252 253 253 254 254 255 256 258 258 258 258 259 260 260 260 260 260 259 259 259 259 258 258 258 258 257 257 257 258 259 260 261 262 263 264 265 265 266 266 267 267 267 266 265 266 267 268 270 270 271 273 275 276 278 280 280 281 283 285 285 286 287 288 289 291 293 294 296
241 242 242 244 244 245 246 247 248 248 248 249 250 251 252 253 253 253 254 255 256 256 257 257 258 258 258 258 258 257 257 258 259 259 260 260 260 259 259 259 259 258 257 257 257 257 257 257 258 259 260 261 261 261 262 262 262 262 263 264 265 265 265 265 266 267 268 268 269 272 274 276 278 280 281 282 283 284 284 285 286 288 289 291 293 294 296
245 245 246 246 247 248 249 250 251 251 252 252 252 253 253 254 255 255 255 256 257 258 258 258 258 258 257 256 256 257 256 256 256 258 258 259 260 260 260 260 260 259 259 258 258 258 258 258 258 257 258 257 257 257 257 258 258 259 260 262 264 265 265 265 266 267 268 269 270 272 274 276 278 279 280 281 282 282 283 285 286 288 289 291 293 295 297
247 247 246 247 247 249 250 250 251 252 253 253 254 254 254 255 255 255 256 256 258 258 258 257 257 257 257 256 257 257 257 256 256 256 257 258 259 260 260 261 260 260 259 259 258 258 258 258 257 256 255 254 252 252 254 255 257 258 260 261 263 265 265 266 267 268 269 270 271 273 274 275 276 277 279 280 281 281 282 284 286 288 289 291 293 295 297
250 250 250 249 249 250 250 251 253 253 254 254 254 255 255 256 256 256 256 256 257 258 258 257 257 257 257 256 257 257 257 256 255 255 256 257 258 258 259 260 259 259 258 257 257 257 257 256 255 253 251 250 249 250 251 253 255 258 261 261 261 263 264 265 266 267 268 270 271 272 273 274 275 276 278 279 279 280 282 285 286 288 290 292 293 295 297
250 250 251 250 251 251 252 253 254 254 254 254 255 255 255 256 256 256 255 255 256 257 257 256 256 256 255 256 256 256 255 253 253 254 254 254 255 256 257 257 257 256 256 255 254 254 253 252 250 249 249 247 247 248 249 251 254 258 261 261 260 261 262 264 265 266 268 269 269 270 272 273 274 275 277 278 279 281 283 285 286 288 290 291 293 294 296
247 248 249 250 251 252 253 253 254 255 255 256 256 256 256 256 255 255 255 255 255 256 256 256 255 254 254 254 255 254 252 252 252 252 252 252 253 253 253 253 253 253 252 251 251 250 249 248 247 247 247 246 245 245 246 250 254 258 260 260 261 262 263 264 265 266 266 267 268 270 271 272 274 275 276 278 279 281 283 284 286 287 289 291 293 294 295
248 248 249 250 251 252 252 253 254 255 256 257 257 257 256 256 256 255 255 255 255 256 256 256 255 254 253 253 252 252 251 251 251 251 252 252 252 251 251 250 250 249 248 247 246 246 245 244 244 244 244 244 245 245 246 248 253 256 259 260 262 263 263 263 264 264 265 266 267 269 270 272 273 275 276 278 279 281 283 284 286 288 290 292 293 293 295
249 249 249 250 250 250 251 251 252 253 254 255 256 256 256 256 255 255 255 254 254 255 255 256 255 254 253 252 251 251 251 251 251 251 251 250 250 249 249 248 247 247 246 245 244 244 243 244 244 243 243 243 243 244 245 247 251 255 258 259 260 260 260 261 262 264 265 266 267 268 270 272 273 275 277 278 280 282 284 285 287 289 291 292 293 295 299
249 249 249 249 250 250 250 250 250 251 252 252 253 254 254 254 254 254 254 253 253 253 253 253 254 253 253 253 252 251 251 251 250 250 249 249 248 248 247 246 245 245 244 244 244 243 243 244 244 245 245 244 243 243 242 244 247 251 254 256 258 259 261 263 264 265 267 267 268 270 271 273 275 276 278 279 281 283 285 286 288 289 291 293 295 298 300
248 249 249 249 249 250 250 250 250 251 251 251 252 253 253 253 253 254 254 254 253 253 253 252 252 251 251 251 251 251 251 251 250 250 249 249 248 247 246 245 244 244 244 244 244 243 243 244 244 245 246 247 247 246 245 245 247 250 253 255 259 261 264 265 267 268 268 269 270 271 273 275 276 278 279 280 282 283 284 286 288 289 292 294 296 298 298
245 247 249 250 251 252 252 253 253 253 254 254 254 254 254 255 255 255 255 255 255 254 254 254 253 253 252 251 250 250 250 250 250 250 249 249 249 248 247 246 245 244 244 244 244 244 244 244 244 245 245 247 248 249 250 251 252 253 255 257 260 262 264 265 267 269 270 270 271 273 274 276 277 278 279 280 282 283 284 286 288 290 292 294 295 296 296
249 248 249 251 253 254 255 257 257 258 258 258 257 257 256 256 256 255 255 254 254 254 254 254 254 254 254 253 252 251 250 249 249 249 248 248 248 248 247 246 246 245 244 244 244 244 244 245 245 246 247 247 248 250 251 253 254 256 257 259 261 263 265 266 268 269 270 272 273 275 275 276 277 278 279 280 282 283 285 287 288 290 291 292 293 293 293
256 255 255 255 255 256 256 257 257 258 258 259 258 257 256 255 255 254 254 253 253 252 252 252 252 252 252 252 252 252 251 250 249 249 249 248 248 248 247 247 246 245 245 245 244 244 244 244 245 246 247 249 250 251 251 253 254 256 258 260 262 263 264 265 267 268 270 272 274 275 275 276 277 278 280 281 282 283 284 286 287 288 289 290 290 291 292
258 260 261 260 260 259 258 257 257 256 257 257 257 257 256 256 255 254 253 253 252 252 252 251 251 251 251 251 252 251 251 251 250 250 250 249 249 248 248 247 247 246 246 246 246 245 245 245 246 246 247 248 249 251 252 253 254 255 257 259 261 262 263 264 265 267 268 270 271 273 274 276 278 279 281 282 283 283 284 284 285 286 287 288 289 290 292
258 259 261 262 262 261 261 260 259 258 257 257 257 257 256 256 255 254 254 253 252 252 252 252 252 252 252 252 252 252 252 251 251 251 251 250 250 249 248 248 247 247 247 247 247 247 247 247 248 248 248 248 249 250 252 253 254 256 257 259 260 262 263 264 264 266 267 268 270 271 273 275 277 279 280 281 282 282 282 283 284 285 286 288 289 291 292
258 259 261 261 262 262 262 262 261 261 260 259 258 258 258 257 256 255 255 254 254 253 253 253 253 253 253 253 253 253 253 252 252 252 252 251 251 250 249 249 248 247 247 247 247 248 248 249 250 250 251 251 251 251 252 254 255 256 258 260 261 261 262 263 264 265 266 268 270 272 274 275 276 277 278 278 279 280 280 281 282 284 286 287 289 290 291
259 260 261 261 262 262 263 262 262 262 261 261 260 260 259 259 258 258 257 256 256 255 254 254 254 254 254 254 254 254 254 253 253 253 252 252 252 251 250 250 249 248 248 247 247 247 248 249 250 251 253 254 255 255 256 256 257 257 258 259 260 261 261 262 263 264 266 268 270 272 273 274 275 275 275 276 277 278 279 281 282 284 285 286 288 289 290
261 261 262 263 263 263 263 263 263 262 262 262 262 261 261 261 261 261 260 259 258 257 256 255 254 254 254 254 254 254 254 253 253 253 253 252 252 252 251 251 250 250 249 249 249 248 248 249 250 251 252 254 255 256 257 258 259 259 259 259 259 259 260 262 263 265 266 268 270 271 271 272 273 273 274 275 276 277 279 280 282 283 284 285 286 287 288
262 263 265 265 265 264 263 263 262 262 262 262 262 262 263 262 262 262 262 261 260 259 258 257 256 255 254 254 254 254 253 253 252 252 252 252 252 252 252 251 251 250 250 250 250 250 250 250 251 252 253 253 254 255 256 258 260 261 261 261 261 261 261 262 263 265 266 267 268 269 270 271 272 273 273 274 275 276 278 279 280 282 283 284 286 287 288
265 266 267 266 265 263 262 262 262 262 262 262 262 262 262 262 261 261 262 262 261 260 259 259 259 257 255 254 254 254 255 254 254 253 253 253 252 252 252 251 251 250 250 250 250 250 250 250 251 253 254 255 256 256 257 258 259 260 261 262 263 263 264 265 266 267 268 269 269 269 270 271 271 272 273 274 275 276 278 279 280 282 283 284 286 287 288
266 266 266 264 263 261 261 260 260 261 261 261 260 259 259 259 259 260 261 262 263 263 263 264 264 263 261 259 257 256 256 256 256 256 255 255 254 254 253 253 252 251 250 250 249 249 249 250 251 252 254 256 258 258 258 259 259 259 260 261 262 264 265 267 268 269 270 271 271 272 272 273 274 275 276 277 278 278 279 280 281 282 283 284 285 286 287
265 264 262 261 260 260 260 259 259 260 259 258 257 256 255 256 257 259 261 263 265 266 267 267 267 267 267 266 264 262 261 259 258 258 257 257 256 256 256 255 255 254 253 252 251 251 250 251 251 253 254 256 257 258 258 258 259 260 261 262 263 264 265 266 268 269 270 271 272 273 274 275 276 277 277 278 279 279 280 280 281 282 282 283 284 284 285